Content
SEND FEEDBACK

Daily
Averages
Monthly
Summary
United States of America

YARMOUTH, MASSACHUSETTS


Home > North America > United States > Massachusetts
Elevation: 52 feet     Latitude: 41 40N     Longitude: 070 16W

WEATHER
 
SELECT A DAY
Number of Records: 210,128;   Date Range: 1/1/95 - 10/20/14
 
SHARE

PRINT THIS DATA

[ ← Previous Day ]
WEATHER ALMANAC - SEPTEMBER 25, 2013
[ Next Day → ]
[ °C ]   °F
Weather ElementAverageHighLow
Temperature54.3 °F64.4 °F (2:26 pm) (1:56 pm)
Dewpoint44.8 °F50 °F (9:56 pm) (7:00 pm)
Humidity71.2 %93 % (1:56 am)50 % (2:56 pm)
Barometer29.90 in29.96 in (10:56 pm)29.87 in (5:56 am)
Wind Speed4.4 mph11.5 mph (2:26 pm)
Wind Gust17.3 mph (10:56 am)
Weather ElementAverage
Visibility10 mi
Wind DirectionESE (112.8 °)

Weather ElementTotal
Precipitation---
Heating Degree Days32.8 (Base 65)
Averaged from 25 records on September 25, 2013
WEATHER CONDITIONS BREAKOUT
WIND DIRECTION BREAKOUT
WEATHER BY HOUR - SEPTEMBER 25, 2013
[ °C ]   °F
Local TimeTemperatureDewpointHumidityBarometerVisibilityWind DirectionWind SpeedGust SpeedPrecipitationEventsConditions
1:56 AM46.0 °F44.1 °F93 %29.89 in10.0 miCalmClear
2:56 AM45.0 °F43.0 °F93 %29.88 in10.0 miCalmClear
3:56 AM44.1 °F42.1 °F93 %29.88 in10.0 miCalmClear
4:56 AM45.0 °F43.0 °F93 %29.88 in10.0 miCalmClear
5:56 AM46.0 °F44.1 °F93 %29.87 in10.0 miNW (310°)3.5 mphClear
6:56 AM46.0 °F44.1 °F93 %29.88 in10.0 miCalmClear
7:56 AM53.1 °F46.0 °F77 %29.88 in10.0 miNW (310°)4.6 mphClear
8:56 AM57.9 °F48.9 °F72 %29.89 in10.0 miNW (310°)5.8 mphClear
9:56 AM60.1 °F46.9 °F62 %29.89 in10.0 miNorth (360°)9.2 mphClear
10:56 AM60.1 °F48.0 °F64 %29.89 in10.0 miNorth (360°)10.4 mph17.3 mphPartly Cloudy
11:56 AM62.1 °F48.9 °F62 %29.90 in10.0 miVariable6.9 mphScattered Clouds
12:56 PM62.1 °F48.9 °F62 %29.90 in10.0 miNNW (330°)8.1 mphPartly Cloudy
1:56 PM0.0 °F0.0 °F29.89 in10.0 miNorth (350°)6.9 mphPartly Cloudy
2:26 PM64.4 °F48.2 °F56 %29.89 in10.0 miNNE (20°)11.5 mphMostly Cloudy
2:36 PM62.6 °F46.4 °F55 %29.89 in10.0 miNNE (20°)10.4 mphScattered Clouds
2:56 PM64.0 °F45.0 °F50 %29.90 in10.0 miNNW (340°)10.4 mphPartly Cloudy
3:56 PM63.0 °F48.0 °F58 %29.90 in10.0 miNE (40°)10.4 mphClear
4:56 PM63.0 °F46.0 °F54 %29.90 in10.0 miNNE (20°)8.1 mphMostly Cloudy
5:56 PM62.1 °F46.9 °F58 %29.90 in10.0 miNE (50°)4.6 mphOvercast
6:56 PM61.0 °F46.9 °F60 %29.92 in10.0 miCalmOvercast
7:56 PM60.1 °F48.0 °F64 %29.93 in10.0 miCalmOvercast
8:56 PM57.9 °F48.9 °F72 %29.94 in10.0 miCalmOvercast
9:56 PM57.0 °F50.0 °F77 %29.95 in10.0 miCalmOvercast
10:56 PM57.0 °F48.9 °F74 %29.96 in10.0 miCalmOvercast
11:56 PM57.0 °F48.9 °F74 %29.96 in10.0 miCalmOvercast
Hourly data recorded from KHYA, located miles away from Yarmouth, Massachusetts







STORIES FROM OUR PARTNERS